Location: Kermapucano
(48.0667°N, 3.3000°W)
Time: 20:22:40
(UTC+00:00)

Lacrosse 5 - Pass Details

Date: 29 November 2020
Orbit: 713 x 726 km, 57.0° (Epoch: 23 January)

Event Time Altitude Azimuth Distance (km) Brightness Sun altitude
Exits shadow 04:32:06 42° 128° (SE) 1,013 2.8 -30.6°
Drops below altitude 10° 04:36:42 10° 63° (ENE) 2,196 5.1 -29.9°
Sets 04:39:10 0° 56° (ENE) 3,120 6.0 -29.5°
